When you browse on this site, cookies collect data to enhance your experience and personalize the content and advertising you see.
Visit our Privacy Policy to learn more. By continuing to use the site, you agree to this use of cookies and data.
  • In Netherlands
  • List of Countries
  • For 7 days
  • Water Temperature
  • Satellite Maps
  • Weather Map
  • Weather Widgets
  • user-avatar
    Login

    Hourly Weather Kalgoorlie

    Today, 15 December, Saturday

    Time Temperature Precipitation Wind Pressure Humidity
    00:00 +26°C° 0 mm 7 mps 726 mmHg 23%
    01:00 +26°C° 0 mm 7 mps 726 mmHg 25%
    02:00 +23°C° 0 mm 7 mps 725 mmHg 28%
    03:00 +23°C° 0 mm 7 mps 725 mmHg 30%
    04:00 +22°C° 0 mm 7 mps 725 mmHg 33%
    05:00 +21°C° 0 mm 7 mps 725 mmHg 35%
    06:00 +23°C° 0 mm 7 mps 725 mmHg 33%
    07:00 +24°C° 0 mm 7 mps 725 mmHg 30%
    08:00 +27°C° 0 mm 7 mps 725 mmHg 27%
    09:00 +29°C° 0 mm 7 mps 725 mmHg 23%
    10:00 +32°C° 0 mm 7 mps 725 mmHg 19%
    11:00 +34°C° 0 mm 7 mps 724 mmHg 16%
    12:00 +35°C° 0 mm 6 mps 724 mmHg 15%
    13:00 +36°C° 0 mm 6 mps 723 mmHg 14%
    14:00 +36°C° 0 mm 6 mps 722 mmHg 13%
    15:00 +38°C° 0 mm 6 mps 722 mmHg 13%
    16:00 +38°C° 0 mm 6 mps 721 mmHg 13%
    17:00 +38°C° 0 mm 6 mps 721 mmHg 12%
    18:00 +36°C° 0 mm 7 mps 720 mmHg 13%
    19:00 +35°C° 0 mm 8 mps 720 mmHg 14%
    20:00 +34°C° 0 mm 9 mps 719 mmHg 15%
    21:00 +33°C° 0 mm 9 mps 719 mmHg 16%
    22:00 +32°C° 0 mm 10 mps 719 mmHg 17%
    23:00 +31°C° 0 mm 11 mps 719 mmHg 18%

    Tomorrow, 16 December, Sunday

    Time Temperature Precipitation Wind Pressure Humidity
    00:00 +31°C° 0 mm 10 mps 719 mmHg 19%
    01:00 +29°C° 0 mm 10 mps 719 mmHg 19%
    02:00 +28°C° 0 mm 10 mps 719 mmHg 20%
    03:00 +28°C° 0 mm 9 mps 719 mmHg 20%
    04:00 +27°C° 0 mm 8 mps 719 mmHg 21%
    05:00 +27°C° 0 mm 8 mps 719 mmHg 21%
    06:00 +28°C° 0 mm 7 mps 719 mmHg 21%
    07:00 +30°C° 0 mm 7 mps 720 mmHg 20%
    08:00 +32°C° 0 mm 7 mps 720 mmHg 20%
    09:00 +34°C° 0 mm 7 mps 719 mmHg 20%
    10:00 +35°C° 0 mm 6 mps 719 mmHg 21%
    11:00 +38°C° 0 mm 6 mps 719 mmHg 21%
    12:00 +39°C° 0 mm 6 mps 718 mmHg 19%
    13:00 +39°C° 0 mm 7 mps 717 mmHg 17%
    14:00 +40°C° 0 mm 8 mps 717 mmHg 15%
    15:00 +39°C° 0 mm 8 mps 716 mmHg 14%
    16:00 +39°C° 0 mm 8 mps 716 mmHg 14%
    17:00 +38°C° 0 mm 8 mps 716 mmHg 13%
    18:00 +36°C° 0 mm 7 mps 716 mmHg 14%
    19:00 +35°C° 0 mm 6 mps 717 mmHg 16%
    20:00 +34°C° 0 mm 5 mps 717 mmHg 17%
    21:00 +33°C° 0 mm 6 mps 718 mmHg 21%
    22:00 +32°C° 0 mm 7 mps 718 mmHg 25%
    23:00 +29°C° 0 mm 7 mps 718 mmHg 29%

    Day after tomorrow, 17 December, Monday

    Time Temperature Precipitation Wind Pressure Humidity
    00:00 +28°C° 0 mm 7 mps 718 mmHg 35%
    01:00 +27°C° 0 mm 7 mps 718 mmHg 41%
    02:00 +26°C° 0 mm 7 mps 718 mmHg 47%
    03:00 +24°C° 0 mm 7 mps 718 mmHg 52%
    04:00 +22°C° 0 mm 6 mps 718 mmHg 58%
    05:00 +21°C° 0 mm 6 mps 719 mmHg 63%
    06:00 +22°C° 0.3 mm 6 mps 719 mmHg 62%
    07:00 +22°C° 0.3 mm 5 mps 719 mmHg 62%
    08:00 +23°C° 0.3 mm 5 mps 720 mmHg 61%
    09:00 +23°C° 0.5 mm 5 mps 720 mmHg 59%
    10:00 +24°C° 0.5 mm 6 mps 720 mmHg 58%
    11:00 +24°C° 0.5 mm 6 mps 720 mmHg 56%
    12:00 +24°C° 0.8 mm 7 mps 720 mmHg 57%
    13:00 +24°C° 0.8 mm 9 mps 720 mmHg 58%
    14:00 +23°C° 0.8 mm 10 mps 720 mmHg 58%
    15:00 +23°C° 0.1 mm 10 mps 721 mmHg 59%
    16:00 +22°C° 0.1 mm 10 mps 721 mmHg 60%
    17:00 +22°C° 0.1 mm 9 mps 722 mmHg 61%
    18:00 +21°C° 0 mm 9 mps 722 mmHg 63%
    19:00 +20°C° 0 mm 8 mps 723 mmHg 66%
    20:00 +18°C° 0 mm 8 mps 724 mmHg 68%
    21:00 +18°C° 0 mm 8 mps 724 mmHg 69%
    22:00 +18°C° 0 mm 8 mps 724 mmHg 71%
    23:00 +17°C° 0 mm 7 mps 725 mmHg 72%

    18 December, Tuesday

    Time Temperature Precipitation Wind Pressure Humidity
    00:00 +17°C° 0 mm 7 mps 724 mmHg 73%
    01:00 +17°C° 0 mm 7 mps 724 mmHg 75%
    02:00 +16°C° 0 mm 7 mps 724 mmHg 76%
    03:00 +16°C° 0 mm 7 mps 724 mmHg 75%
    04:00 +16°C° 0 mm 7 mps 725 mmHg 74%
    05:00 +16°C° 0 mm 7 mps 725 mmHg 74%
    06:00 +17°C° 0 mm 7 mps 726 mmHg 71%
    07:00 +17°C° 0 mm 6 mps 726 mmHg 68%
    08:00 +19°C° 0 mm 6 mps 727 mmHg 65%
    09:00 +20°C° 0 mm 6 mps 727 mmHg 61%
    10:00 +21°C° 0 mm 6 mps 727 mmHg 56%
    11:00 +22°C° 0 mm 6 mps 727 mmHg 52%
    12:00 +23°C° 0 mm 6 mps 727 mmHg 48%
    13:00 +26°C° 0 mm 6 mps 727 mmHg 43%
    14:00 +27°C° 0 mm 6 mps 727 mmHg 39%
    15:00 +27°C° 0 mm 6 mps 727 mmHg 38%
    16:00 +28°C° 0 mm 7 mps 727 mmHg 38%
    17:00 +28°C° 0 mm 7 mps 727 mmHg 37%
    18:00 +26°C° 0 mm 7 mps 728 mmHg 41%
    19:00 +23°C° 0 mm 7 mps 729 mmHg 46%
    20:00 +22°C° 0 mm 7 mps 729 mmHg 50%
    21:00 +21°C° 0 mm 7 mps 730 mmHg 53%
    22:00 +20°C° 0 mm 6 mps 730 mmHg 57%
    23:00 +19°C° 0 mm 6 mps 730 mmHg 60%

    19 December, Wednesday

    Time Temperature Precipitation Wind Pressure Humidity
    00:00 +17°C° 0 mm 6 mps 730 mmHg 63%
    01:00 +16°C° 0 mm 5 mps 730 mmHg 66%
    02:00 +15°C° 0 mm 5 mps 730 mmHg 69%
    03:00 +15°C° 0 mm 5 mps 730 mmHg 71%
    04:00 +14°C° 0 mm 5 mps 730 mmHg 73%
    05:00 +14°C° 0 mm 5 mps 731 mmHg 75%
    06:00 +15°C° 0 mm 5 mps 731 mmHg 69%
    07:00 +16°C° 0 mm 6 mps 731 mmHg 63%
    08:00 +19°C° 0 mm 6 mps 732 mmHg 57%
    09:00 +21°C° 0 mm 6 mps 732 mmHg 50%
    10:00 +22°C° 0 mm 5 mps 731 mmHg 42%
    11:00 +25°C° 0 mm 4 mps 731 mmHg 35%
    12:00 +26°C° 0 mm 4 mps 731 mmHg 31%
    13:00 +28°C° 0 mm 4 mps 730 mmHg 28%
    14:00 +29°C° 0 mm 4 mps 730 mmHg 24%
    15:00 +29°C° 0 mm 4 mps 730 mmHg 23%
    16:00 +30°C° 0 mm 4 mps 730 mmHg 23%
    17:00 +30°C° 0 mm 4 mps 730 mmHg 22%
    18:00 +29°C° 0 mm 3 mps 730 mmHg 23%
    19:00 +29°C° 0 mm 3 mps 731 mmHg 25%
    20:00 +28°C° 0 mm 3 mps 731 mmHg 26%
    21:00 +27°C° 0 mm 5 mps 731 mmHg 32%
    22:00 +24°C° 0 mm 7 mps 732 mmHg 37%
    23:00 +23°C° 0 mm 8 mps 732 mmHg 43%

    20 December, Thursday

    Time Temperature Precipitation Wind Pressure Humidity
    00:00 +22°C° 0 mm 8 mps 731 mmHg 49%
    01:00 +21°C° 0 mm 8 mps 731 mmHg 54%
    02:00 +18°C° 0 mm 8 mps 731 mmHg 60%
    03:00 +18°C° 0 mm 8 mps 731 mmHg 63%
    04:00 +17°C° 0 mm 8 mps 731 mmHg 66%
    05:00 +16°C° 0 mm 7 mps 731 mmHg 69%
    06:00 +18°C° 0 mm 7 mps 732 mmHg 64%
    07:00 +20°C° 0 mm 7 mps 732 mmHg 59%
    08:00 +21°C° 0 mm 7 mps 732 mmHg 54%
    09:00 +23°C° 0 mm 6 mps 732 mmHg 48%
    10:00 +26°C° 0 mm 6 mps 732 mmHg 42%
    11:00 +28°C° 0 mm 6 mps 732 mmHg 36%
    12:00 +29°C° 0 mm 5 mps 731 mmHg 33%
    13:00 +30°C° 0 mm 5 mps 730 mmHg 29%
    14:00 +32°C° 0 mm 4 mps 730 mmHg 26%
    15:00 +32°C° 0 mm 4 mps 730 mmHg 25%
    16:00 +32°C° 0 mm 4 mps 729 mmHg 25%
    17:00 +32°C° 0 mm 4 mps 729 mmHg 24%
    18:00 +30°C° 0 mm 5 mps 730 mmHg 25%
    19:00 +30°C° 0 mm 5 mps 730 mmHg 27%
    20:00 +29°C° 0 mm 6 mps 730 mmHg 28%
    21:00 +28°C° 0 mm 7 mps 730 mmHg 31%
    22:00 +27°C° 0 mm 8 mps 730 mmHg 34%
    23:00 +26°C° 0 mm 8 mps 731 mmHg 37%
    Show more